Location: ?
(35.3436°N, 139.3168°E)
Time: 11:19:54
(UTC+00:00)

X-37B - Pass Details

Date: 13 May 2021
Orbit: 386 x 389 km, 45.0° (Epoch: 10 June)

Event Time Altitude Azimuth Distance (km) Brightness Sun altitude
Rises 10:23:38 0° 307° (NW) 2,273 6.8 -9.0°
Reaches altitude 10° 10:25:59 10° 323° (NW) 1,416 4.7 -9.5°
Maximum altitude 10:28:35 23° 18° (NNE) 889 2.6 -9.9°
Drops below altitude 10° 10:31:11 10° 73° (ENE) 1,412 3.0 -10.4°
Enters shadow 10:31:32 - 76° (ENE) 1,530 3.2 -10.4°
